Regional Weather Roundup
Issued by NWS Raleigh/Durham, NC

Home | Current Version | Previous Version | Text Only | Print | Product List | Glossary On
Versions: 1 2 3 4 5 6 7 8 9 10 11 12 13 14 15 16 17 18 19 20 21 22 23 24 25 26 27 28 29 30 31 32 33 34 35 36 37 38 39 40 41 42 43 44 45 46 47 48 49 50
000
ASUS42 KRAH 221210
RWRRAH
NORTH CAROLINA WEATHER ROUNDUP
NATIONAL WEATHER SERVICE RALEIGH NC
800 AM EDT SUN OCT 22 2017

NOTE: "FAIR" INDICATES FEW OR NO CLOUDS BELOW 12,000 FEET WITH NO
SIGNIFICANT WEATHER AND/OR OBSTRUCTIONS TO VISIBILITY.

NCZ001-053-055-056-065-067-221300-
WESTERN NORTH CAROLINA

CITY           SKY/WX    TMP DP  RH WIND       PRES   REMARKS
ASHEVILLE      CLEAR     45  43  93 CALM      30.36R
JEFFERSON      CLEAR     47  44  92 CALM      30.37S
HICKORY        CLEAR     50  50 100 CALM      30.34R FOG
RUTHERFORDTON  CLEAR     49  49 100 CALM      30.34S
MOUNT AIRY     CLEAR     49  46  88 CALM      30.37R
BOONE          CLEAR     38  38 100 CALM      30.39S FOG
$$

NCZ021-022-025-041-071-084-088-221300-
CENTRAL NORTH CAROLINA

CITY           SKY/WX    TMP DP  RH WIND       PRES   REMARKS
CHARLOTTE      PTCLDY    52  52 100 CALM      30.34R
GREENSBORO     MOCLDY    50  50 100 CALM      30.35R
WINSTON-SALEM  MOCLDY    54  51  90 CALM      30.36R
RALEIGH-DURHAM MOCLDY    52  52 100 CALM      30.36R
FORT BRAGG     CLEAR     50  50  98 CALM      30.33R
FAYETTEVILLE   CLEAR     54  54 100 N6        30.33S FOG
BURLINGTON     PTCLDY    50  50 100 CALM      30.35S
LAURINBURG     MOCLDY    54  54 100 NE6       30.33S FOG
$$

NCZ011-015-027-028-043-044-047-080-103-221300-
NORTHEASTERN NORTH CAROLINA

CITY           SKY/WX    TMP DP  RH WIND       PRES   REMARKS
ROCKY MT-WILSO FOG       53  53 100 CALM      30.37R VSB 3/4
GREENVILLE     FOG       52  50  93 CALM      30.36R VSB 1/4
WASHINGTON     PTCLDY    53  52  95 CALM      30.36R
ELIZABETH CITY PTCLDY    59  59 100 N3        30.37R
MANTEO         CLOUDY   N/A N/A N/A E5        30.36R
CAPE HATTERAS  CLOUDY    69  63  81 NE6       30.35R
$$

NCZ078-087-090-091-093-098-101-221300-
SOUTHEASTERN NORTH CAROLINA

CITY           SKY/WX    TMP DP  RH WIND       PRES   REMARKS
LUMBERTON      CLOUDY    55  55 100 N3        30.33R FOG
GOLDSBORO      CLEAR     52  51  95 CALM      30.34R FOG
KINSTON        FOG       54  54 100 CALM      30.36R VSB 1
KENANSVILLE    PTCLDY    50  48  93 CALM      30.35R
NEW BERN       PTCLDY    56  56 100 CALM      30.36R
CHERRY POINT   PTCLDY    61  61 100 CALM      30.36R
BEAUFORT       CLEAR     63  63 100 NE6       30.34R
JACKSONVILLE   PTCLDY    59  59 100 CALM      30.34R
WILMINGTON     CLOUDY    61  58  90 NE5       30.33R
$$




USA.gov is the U.S. government's official web portal to all federal, state and local government web resources and services.